Location: Ostrava
(49.8330°N, 18.2830°E)
Time: 12:28:48
(UTC+01:00)

Cosmos 2221 - Visible Passes

Search period start: 25 March 2017 00:00
Search period end: 04 April 2017 01:00
Orbit: 595 x 616 km, 82.5° (Epoch: 23 March)

Date Brightness Start Highest point End Pass type
(mag) Time Alt. Az. Time Alt. Az. Time Alt. Az.
25 Mar 4.3 20:41:27 21° NE 20:41:27 21° NE 20:43:07 10° NNE visible
25 Mar 4.9 22:18:17 22° NW 22:18:17 22° NW 22:20:32 10° N visible
26 Mar 3.8 21:53:55 32° NNE 21:53:55 32° NNE 21:56:25 10° NNE visible
26 Mar 5.1 23:30:44 18° NW 23:30:44 18° NW 23:33:10 10° NNW visible
27 Mar 3.2 22:06:18 50° N 22:06:18 50° N 22:09:36 10° N visible
27 Mar 5.4 23:43:08 12° WNW 23:43:28 12° WNW 23:45:19 10° NW visible
28 Mar 4.2 20:41:49 17° ENE 20:41:49 17° ENE 20:44:01 10° NE visible
28 Mar 3.2 22:18:38 55° NW 22:18:38 55° NW 22:22:38 10° N visible
29 Mar 3.6 20:54:03 26° E 20:54:03 26° E 20:57:43 10° NNE visible
29 Mar 3.9 22:30:52 34° W 22:31:29 36° WNW 22:35:34 10° N visible
30 Mar 2.9 21:06:10 37° ESE 21:06:59 41° E 21:11:08 10° NNE visible
30 Mar 4.7 22:42:58 19° WSW 22:44:45 24° WNW 22:48:21 10° NNW visible
31 Mar 2.5 21:18:08 32° SSE 21:20:00 66° E 21:24:23 10° NNE visible
31 Mar 5.3 22:55:18 10° WSW 22:58:05 16° WNW 23:00:52 10° NNW visible
01 Apr 4.4 19:54:16 10° ESE 19:56:10 13° E 19:58:03 10° NE visible
01 Apr 2.6 21:29:51 18° SSW 21:33:05 79° W 21:37:31 10° N visible
01 Apr 5.6 23:10:20 10° WNW 23:11:29 11° WNW 23:12:39 10° NW visible
02 Apr 3.9 20:05:52 10° SE 20:09:00 20° E 20:12:09 10° NE visible
02 Apr 3.4 21:41:59 10° SSW 21:46:14 49° WNW 21:50:32 10° N visible
03 Apr 3.4 20:18:05 10° SSE 20:21:54 30° E 20:25:45 10° NNE visible
03 Apr 4.3 21:55:30 10° SW 21:59:27 32° WNW 22:03:25 10° N visible
